Tracking 28126 objects as of 1-Oct-2023
HD Live streaming from Space Station
objects crossing your sky now

SL-14 R/B

Track SL-14 R/B now!
10-day predictions
SL-14 R/B is classified as:


NORAD ID: 18749
Int'l Code: 1988-001B
Perigee: 612.1 km
Apogee: 636.2 km
Inclination: 82.5 °
Period: 97.0 minutes
Semi major axis: 6995 km
RCS: 4.583 m2 (large)
Launch date: January 6, 1988
Source: Commonwealth of Independent States (former USSR) (CIS)
Launch site: PLESETSK MISSILE AND SPACE COMPLEX (PKMTR)

Note: This is a ROCKET BODY
Your satellite tracking list
Your tracking list is empty




NASA's NSSDC Master Catalog

Two Line Element Set (TLE):
1 18749U 88001B   23274.56197736  .00000724  00000-0  84156-4 0  9999
2 18749  82.5125 311.6938 0017196 301.4466  58.5068 14.83910610909938
Source of the keplerian elements: AFSPC